This demonstration page uses our WeatherBlox Daily Observations layout. Learn more.

Left ArrowRight Arrow

39.12711, -84.51439

Hourly Observations for August 14, 2022

Temp ( °F °C ) Dew Point ( °F °C ) Humidity (%) Winds ( mph kmh ) Pressure ( in mb ) Visibility ( mi km ) Precip ( " mm )
12:53 am 00:53 Clear 65 18.3 64 17.8 97 97 Calm 30.04 1017 8 13 0.00 0.00
1:53 am 01:53 Clear with Mist and Fog 64 17.8 63 17.2 96 96 Calm 30.03 1017 6 10 0.00 0.00
2:53 am 02:53 Clear with Mist and Fog 63 17.2 62 16.7 97 97 Calm 30.01 1016 5 8 0.00 0.00
3:53 am 03:53 Mostly Clear with Mist and Fog 62 16.7 61 16.1 96 96 Calm 30.00 1016 5 8 0.00 0.00
4:53 am 04:53 Clear with Mist and Fog 62 16.7 62 16.7 100 100 Calm 30.00 1016 4 6 0.00 0.00
5:53 am 05:53 Mostly Cloudy with Mist and Fog 62 16.7 62 16.7 100 100 Calm 29.98 1015 4 6 0.00 0.00
6:53 am 06:53 Partly Cloudy 64 17.8 63 17.2 96 96 Calm 29.99 1016 7 11 0.00 0.00
7:53 am 07:53 Cloudy 65 18.3 63 17.2 93 93 S 3 6 29.97 1015 8 13 0.00 0.00
8:53 am 08:53 Cloudy with Light Rain 67 19.4 63 17.2 87 87 SSW 5 7 30.02 1017 8 13 0.01 0.13
9:53 am 09:53 Cloudy with Light Rain 67 19.4 65 18.3 93 93 Calm 30.00 1016 5 8 0.08 2.03
10:14 am 10:14 Cloudy with Rain 67 19.4 65 18.3 93 93 NNE 5 7 30.00 1016 3 4 0.02 0.51
10:46 am 10:46 Cloudy with Light Rain 67 19.4 65 18.3 93 93 WSW 3 6 30.00 1016 8 13 0.03 0.76
10:53 am 10:53 Cloudy 68 20 65 18.3 90 90 Calm 29.99 1016 10 16 0.03 0.76
11:53 am 11:53 Cloudy 70 21.1 66 18.9 87 87 S 6 9 29.97 1015 10 16 0.01 0.13
12:53 pm 12:53 Cloudy 73 22.8 65 18.3 76 76 VRB 3 6 29.95 1014 8 13 0.00 0.00
1:53 pm 13:53 Cloudy 74 23.3 65 18.3 74 74 SE 5 7 29.92 1013 8 13 0.00 0.00
2:03 pm 14:03 Cloudy with Thunderstorms 74 23.3 65 18.3 74 74 Calm 29.92 1013 8 13 0.00 0.00
2:15 pm 14:15 Cloudy with Strong Thunderstorms 72 22.2 66 18.9 82 82 VRB 5 7 29.91 1013 1 1 0.12 3.05
2:25 pm 14:25 Cloudy with Light Rain 72 22.2 68 20 87 87 NE 5 7 29.93 1013 1 2 0.16 4.06
2:32 pm 14:32 Cloudy 74 23.3 66 18.9 76 76 NE 6 9 29.92 1013 8 13 0.16 4.06
2:53 pm 14:53 Cloudy 75 23.9 67 19.4 76 76 VRB 3 6 29.92 1013 8 13 0.16 4.06
3:53 pm 15:53 Cloudy 76 24.4 67 19.4 74 74 S 9 15 29.88 1012 10 16 0.00 0.00
4:53 pm 16:53 Cloudy 77 25 67 19.4 71 71 NE 3 6 29.89 1012 10 16 0.00 0.00
5:53 pm 17:53 Cloudy 77 25 68 20 74 74 Calm 29.89 1012 10 16 0.00 0.00
6:53 pm 18:53 Cloudy 76 24.4 69 20.6 79 79 ENE 5 7 29.88 1012 10 16 0.00 0.00
7:53 pm 19:53 Cloudy with Light Rain 72 22.2 69 20.6 91 91 N 7 11 29.90 1013 8 13 0.01 0.13
8:53 pm 20:53 Cloudy 70 21.1 68 20 93 93 ENE 3 6 29.90 1013 10 16 0.02 0.51
9:53 pm 21:53 Cloudy 70 21.1 67 19.4 90 90 NNE 3 6 29.91 1013 10 16 0.00 0.00
10:53 pm 22:53 Cloudy 69 20.6 66 18.9 90 90 NE 6 9 29.91 1013 10 16 0.00 0.00
11:53 pm 23:53 Cloudy with Light Rain 68 20 65 18.3 90 90 NNE 7 11 29.91 1013 7 11 0.01 0.13

Powered by AerisWeather